RH
79 60 96 100 100 100 100 100 99 100 100 100 100 100 100 100 100 88 69 60 54 50 48 45 42 42 40 39 44 56 51 46 44 42 38 32 29 36 36 36 35 32 32 32 36 44 48
98 76 98 91 90 100 97 97 100 100 100 100 100 100 100 100 100 100 98 84 72 62 58 53 48 42 44 41 47 53 44 44 52 53 46 43 41 41 40 38 37 33 32 33 32 35 61
100 71 74 64 74 100 100 100 100 100 80 100 100 100 100 100 100 100 100 100 97 89 76 60 56 50 49 49 48 43 45 42 38 36 39 43 39 41 40 36 39 37 34 34 45 50 72
100 100 100 63 58 80 91 100 100 100 100 77 98 100 100 100 100 100 100 100 100 99 100 96 83 64 56 54 54 55 54 49 49 48 47 46 47 42 49 56 55 44 40 66 65 77 88
100 100 100 100 69 53 55 68 99 100 99 100 85 99 100 100 100 100 98 100 92 99 100 100 100 99 92 83 86 87 88 87 79 75 77 75 78 76 74 76 74 75 88 93 94 95 96
100 100 100 100 100 96 66 60 50 79 92 100 100 100 99 98 100 100 100 93 100 91 100 100 100 100 100 96 95 98 100 100 100 100 95 99 99 100 100 96 89 92 100 100 100 88 87
38 100 100 100 100 100 100 79 83 76 40 99 100 99 100 100 79 100 100 98 100 100 96 100 100 100 100 100 100 100 100 100 100 100 100 99 100 100 100 100 100 100 100 100 100 97 64
12 14 46 99 99 100 100 100 100 97 51 36 57 100 100 100 100 92 81 100 99 95 100 100 100 100 100 100 100 100 100 100 100 100 100 100 100 100 100 100 100 97 100 100 99 69 59
13 12 12 15 69 96 98 100 100 100 94 61 60 38 75 100 100 100 100 96 79 83 84 85 100 100 100 100 100 100 100 100 100 100 100 96 100 100 99 97 85 75 73 78 75 71 52
31 20 14 13 14 30 54 97 100 100 100 100 100 64 41 96 95 100 100 98 91 93 88 100 75 94 100 94 100 100 96 96 100 100 100 100 100 76 51 94 91 97 80 63 81 72 66
29 36 28 19 15 15 15 27 47 87 96 100 100 100 100 100 86 76 88 99 100 100 83 88 92 75 52 78 74 85 92 77 87 98 98 95 94 88 94 74 74 73 71 65 61 76 70
42 30 35 34 23 21 18 16 14 12 34 63 86 100 100 100 100 100 92 80 83 97 85 86 92 86 86 72 77 82 83 85 74 67 69 81 80 77 79 70 59 64 72 65 52 68 61
44 50 35 35 36 28 30 23 19 19 16 9 27 53 68 99 100 100 100 100 95 57 86 91 94 100 100 100 100 92 71 54 56 66 74 73 78 75 77 73 65 52 49 42 46 50 46
47 46 53 37 38 42 33 32 32 21 18 20 17 10 22 32 79 100 100 100 88 74 95 95 90 89 100 100 100 100 100 99 100 90 73 76 68 86 86 79 95 95 73 64 36 31 36
51 52 49 48 37 38 48 41 32 36 33 20 22 22 20 13 11 25 42 79 93 100 100 98 89 100 100 100 100 100 100 99 97 80 71 70 85 90 96 90 77 94 97 56 50 51 35
52 56 53 51 50 39 37 49 53 42 32 38 31 29 34 24 21 19 19 22 37 73 95 100 100 96 100 100 98 100 100 100 98 89 74 62 58 74 73 73 81 78 93 94 80 34 34
44 46 52 56 51 54 45 34 43 53 51 46 40 42 35 35 33 23 14 13 15 14 27 52 90 100 100 100 100 100 100 100 100 100 100 92 89 78 89 99 100 93 92 100 92 52 49
48 48 41 48 53 53 52 49 37 36 45 52 56 51 49 37 32 31 26 20 17 13 14 14 18 18 24 67 95 100 94 96 100 100 100 100 100 77 78 100 100 100 100 100 93 97 77
44 47 46 40 45 48 52 54 50 42 37 39 42 45 49 48 45 39 31 34 30 29 20 18 14 14 13 10 10 13 25 41 49 51 39 57 80 88 90 96 100 100 100 100 100 90 82
36 35 40 36 38 37 40 44 49 48 46 40 39 35 34 37 44 39 33 32 39 39 36 40 30 24 20 17 18 9 12 17 22 19 17 17 16 14 23 45 59 88 100 100 95 82 100
27 28 29 29 32 33 34 35 40 42 45 42 43 38 32 27 31 34 34 34 39 37 38 34 29 24 34 26 26 17 23 31 35 38 32 28 22 16 13 12 11 9 10 22 35 44 43
22 22 22 24 28 27 28 34 34 35 35 31 38 38 41 37 31 32 29 30 29 32 33 38 36 38 34 28 37 39 36 30 26 27 25 24 19 14 11 14 14 12 10 11 11 15 17
24 24 23 23 23 26 27 34 37 32 33 27 33 40 38 38 34 26 31 32 30 26 24 24 25 25 24 33 37 24 22 23 23 23 21 19 19 17 11 15 17 9 14 15 17 14 15
21 20 20 19 20 21 22 26 28 33 36 39 37 37 33 27 28 25 26 28 34 36 31 32 25 22 34 34 22 23 21 20 21 18 17 16 17 18 17 18 14 10 14 15 16 15 17
20 20 20 21 22 20 20 20 23 24 27 28 31 36 35 37 51 33 31 27 28 33 29 27 35 36 40 24 19 18 19 19 16 17 19 18 18 16 15 14 13 11 14 16 17 17 16
20 20 20 21 21 21 22 20 19 18 18 20 24 27 26 30 39 32 30 29 32 29 28 26 35 32 30 26 21 19 18 19 17 14 17 18 15 14 12 12 10 10 16 17 15 14 15
19 20 20 20 22 22 21 21 19 16 16 16 16 18 20 20 27 29 28 34 30 28 27 33 37 33 34 29 27 23 17 20 15 16 20 18 17 13 15 13 9 12 20 38 16 20 36
18 18 19 20 20 20 20 20 20 19 18 16 16 15 15 13 17 18 20 22 25 24 22 27 23 27 27 23 20 16 13 15 18 14 15 16 13 12 11 9 8 20 28 46 63 97 57
15 17 18 19 20 20 20 20 20 19 18 16 16 15 12 10 14 14 16 16 19 21 16 15 16 18 18 16 12 11 8 9 9 8 10 9 10 11 12 16 42 99 86 87 78 100 100
Wind_Speed
85 76 80 83 87 87 85 82 78 79 79 78 76 74 71 70 67 65 64 62 60 59 57 55 54 53 52 51 49 50 50 50 51 51 53 52 49 48 48 49 49 47 48 51 52 51 50
91 90 85 83 84 85 90 85 83 82 83 79 82 77 78 76 74 71 70 68 66 64 62 61 59 58 58 55 56 54 51 51 52 52 52 52 51 51 52 51 53 50 48 49 52 53 54
78 84 93 94 88 91 90 91 88 86 90 88 86 82 84 80 80 78 76 74 71 68 66 66 64 63 63 60 61 59 58 57 56 55 54 55 54 54 55 54 57 53 52 52 54 55 54
84 78 83 93 90 98 92 91 95 93 90 95 92 87 85 84 88 86 83 80 76 72 73 71 70 69 69 65 66 65 64 62 61 61 60 58 59 57 59 60 60 58 56 59 48 54 54
87 87 82 87 92 97 98 92 91 90 94 95 97 94 95 94 89 91 85 85 78 78 77 75 75 74 75 72 71 69 69 68 66 65 64 63 63 63 63 66 65 61 58 64 61 57 54
88 89 89 86 85 94 91 96 98 99 94 97 94 97 98 93 98 96 92 88 85 83 83 81 80 78 77 75 73 72 72 73 71 69 68 68 66 68 71 71 67 65 64 65 67 62 56
93 92 91 93 88 86 94 93 97 96 97 100 100 99 98 94 101 102 102 96 92 86 85 88 85 84 83 79 76 81 81 77 77 75 73 73 69 72 75 73 72 69 69 67 69 71 63
98 97 97 96 98 94 90 95 99 99 95 98 99 99 102 99 100 106 100 100 97 93 93 91 94 91 89 82 85 85 81 81 81 81 81 78 75 76 77 76 73 72 71 75 74 73 69
98 102 100 99 99 98 97 94 93 98 97 101 99 97 101 105 106 104 105 103 103 99 94 98 98 95 92 91 91 93 85 85 85 85 84 80 81 81 80 80 82 82 78 76 73 76 73
96 99 103 103 102 101 100 98 98 96 94 100 102 103 104 105 104 104 108 107 105 100 101 104 100 100 99 99 99 99 94 93 91 91 90 85 89 87 87 88 88 83 86 80 82 79 76
97 98 100 103 105 105 102 101 100 100 100 98 96 101 102 106 107 110 107 109 109 110 103 104 105 99 104 103 101 101 101 96 95 95 94 93 93 92 93 93 91 91 90 86 83 82 80
94 97 101 101 104 104 106 105 103 103 103 101 101 100 97 101 107 106 109 108 106 110 103 101 106 107 106 105 103 103 103 102 102 101 99 97 95 97 99 98 96 95 94 94 89 86 86
95 97 99 103 104 106 105 106 108 106 104 105 103 102 100 100 102 105 110 109 108 107 99 100 103 105 106 107 108 109 107 107 106 103 102 104 103 104 105 102 104 101 97 89 87 83 80
96 100 102 104 105 107 108 109 107 109 110 106 105 106 106 105 106 107 106 110 113 103 100 102 106 106 108 110 111 111 111 108 107 110 111 111 108 109 108 109 107 107 106 102 89 87 87
101 101 104 107 108 109 109 110 111 109 109 112 110 108 109 111 110 109 111 109 98 104 107 112 113 108 106 107 109 110 109 110 110 111 112 113 108 111 110 112 109 106 106 102 97 94 91
102 105 105 107 111 112 112 114 111 112 113 111 113 113 110 111 113 113 115 110 104 102 105 108 112 114 112 107 112 111 112 106 106 108 109 108 107 107 105 105 107 107 102 100 100 94 89
109 108 111 110 112 114 115 116 117 116 114 113 114 113 115 114 114 115 115 111 108 110 114 114 109 110 106 110 115 114 110 105 104 106 109 109 109 102 102 102 104 102 100 96 96 96 95
112 113 116 117 117 117 117 119 118 119 119 116 116 115 116 119 118 116 112 112 112 113 115 115 114 111 109 110 110 111 109 108 106 107 106 105 111 105 104 100 100 99 97 99 99 94 91
118 120 121 124 122 124 122 121 122 123 120 119 118 120 119 118 117 116 115 114 114 111 115 115 114 112 112 112 115 111 108 103 107 109 107 110 113 107 100 99 96 94 95 95 95 93 86
119 126 126 128 128 129 129 127 126 127 124 125 122 123 121 121 120 120 120 118 113 113 114 114 115 115 113 111 114 111 108 104 106 109 109 113 114 111 107 104 101 96 93 92 89 84 80
120 121 125 125 126 131 132 133 131 131 128 128 127 125 124 122 119 122 125 121 116 115 116 118 115 114 113 116 113 114 105 103 105 106 109 112 113 109 108 107 104 99 95 94 96 90 87
110 113 115 122 127 125 126 131 135 134 134 130 129 128 127 129 126 125 124 118 116 115 120 119 117 116 119 119 111 107 111 111 110 112 114 116 115 112 110 108 108 103 92 89 93 87 82
98 102 105 109 114 120 123 128 131 133 134 136 135 129 131 129 131 129 123 123 120 121 118 115 118 119 117 109 112 116 117 115 114 115 117 120 119 118 115 113 112 107 84 90 90 87 82
94 97 98 100 103 106 110 117 124 131 135 133 133 135 137 131 130 131 127 125 121 123 122 118 123 118 109 116 122 120 116 116 117 117 118 118 120 120 119 118 117 93 91 91 91 89 84
89 89 90 93 97 99 102 105 108 110 115 124 134 134 134 133 126 132 131 128 124 125 124 121 119 121 116 122 124 121 116 118 112 113 111 113 116 120 120 121 113 99 93 95 96 89 87
85 85 85 86 89 92 95 98 102 105 108 111 113 119 128 127 126 130 132 130 131 131 126 121 120 124 124 122 121 121 118 111 115 112 109 110 114 120 119 113 114 93 90 90 97 89 86
83 82 83 83 84 86 89 92 95 99 101 102 108 112 115 115 112 121 120 123 127 126 120 119 121 129 128 124 120 119 114 109 111 105 96 103 99 101 93 98 85 74 79 75 84 62 71
82 81 81 83 84 84 85 88 91 94 96 97 99 101 105 106 102 107 108 107 110 112 109 106 114 112 112 111 111 106 102 97 97 92 91 90 87 79 76 72 50 59 57 56 52 59 58
75 77 79 81 82 83 85 86 88 92 95 95 93 97 98 94 80 91 90 90 94 100 97 98 95 96 95 98 100 94 90 87 84 79 76 79 64 63 58 46 35 43 47 44 43 38 45
Wind_Direction
239 233 234 230 233 231 229 231 234 237 241 236 234 233 234 233 231 232 232 232 234 237 240 242 243 245 248 250 254 258 261 266 269 272 276 279 282 284 287 292 296 302 307 311 312 314 319
243 242 234 234 237 234 229 232 238 232 240 240 238 238 237 237 235 234 233 234 236 237 238 241 242 244 246 248 251 255 259 261 263 266 271 274 277 281 284 288 291 295 299 304 306 309 312
235 242 238 238 238 234 234 233 237 236 231 239 241 238 241 241 240 238 236 235 236 237 239 241 242 244 246 248 252 256 257 257 260 265 267 270 273 277 281 284 286 291 295 298 301 302 307
238 228 231 240 239 236 236 236 237 237 238 235 237 238 242 241 241 241 240 239 237 239 239 240 243 245 246 247 250 254 257 258 262 265 267 269 272 274 278 280 280 284 290 293 295 299 303
234 237 229 229 239 241 240 238 236 236 238 235 235 237 238 242 244 243 243 244 245 242 242 244 243 245 247 247 249 252 256 258 258 261 263 266 268 272 274 275 279 284 288 288 294 300 304
233 233 235 236 228 231 236 240 242 238 240 234 235 238 239 239 241 244 244 246 244 248 245 244 246 248 251 251 253 255 256 257 259 259 262 264 267 269 271 274 279 283 286 291 295 295 298
238 235 234 234 233 230 231 234 236 238 241 234 237 238 238 242 239 241 246 245 246 247 249 251 247 249 251 253 254 257 258 261 262 263 266 268 268 270 273 281 280 283 289 289 291 293 294
240 238 237 235 234 234 231 231 231 235 238 240 240 237 240 241 242 240 242 242 246 245 247 251 250 250 253 254 254 256 258 261 263 266 266 268 272 274 276 277 278 279 283 286 287 288 293
242 241 241 239 238 238 236 235 231 233 233 238 240 240 240 240 240 241 243 244 245 244 246 247 249 248 253 255 256 259 258 259 261 263 265 268 268 271 274 274 276 276 278 280 286 289 290
242 243 242 241 241 240 239 239 237 238 233 231 233 240 242 240 239 241 243 244 244 245 245 249 249 251 252 254 255 257 258 259 261 263 265 267 269 269 272 274 275 277 278 280 285 285 288
243 243 243 242 243 241 240 241 241 240 241 238 234 235 236 239 243 246 245 243 244 244 247 249 251 251 251 253 255 259 260 259 260 264 265 265 266 268 269 270 273 274 278 279 280 282 285
242 243 243 242 242 243 243 241 241 241 240 241 243 240 238 237 240 242 244 245 245 245 246 247 249 251 252 254 255 256 257 260 262 262 263 263 268 269 270 272 273 274 277 279 282 283 287
240 241 242 244 242 241 242 243 242 241 241 242 240 242 244 242 239 237 240 242 242 245 247 248 248 248 251 254 255 256 257 259 260 262 263 263 267 270 271 272 274 276 278 278 281 284 284
240 240 239 241 242 242 241 241 242 243 241 242 243 243 243 242 243 244 241 239 242 246 247 248 248 249 249 252 253 254 255 257 259 261 262 263 265 268 271 272 275 278 278 279 281 285 287
240 240 239 238 240 241 242 242 241 241 243 243 242 244 245 244 243 244 247 245 243 244 244 246 247 247 248 249 251 254 256 257 259 262 264 264 265 266 270 271 273 276 277 281 282 284 289
240 240 240 238 238 239 240 242 242 242 242 242 243 242 244 245 245 244 246 248 249 248 244 244 245 248 246 246 249 250 253 255 258 261 263 264 264 266 268 272 273 274 276 278 280 283 285
239 238 239 238 238 238 238 239 241 241 242 243 243 244 244 244 246 246 247 246 247 247 248 248 246 248 248 248 248 249 252 252 256 259 261 263 264 264 266 268 269 271 274 275 277 280 283
239 240 238 238 237 238 238 238 238 240 241 242 243 244 245 246 246 247 248 249 248 246 248 250 250 250 252 253 251 252 252 254 256 258 259 260 261 259 261 264 266 267 268 271 273 276 279
240 238 239 238 238 237 237 238 239 239 240 241 242 243 244 246 248 248 249 249 249 249 250 251 251 250 251 251 253 254 255 257 257 259 261 262 263 260 258 259 262 264 267 269 271 275 278
242 241 239 238 238 237 237 238 238 239 239 240 241 242 244 245 247 248 249 249 249 250 251 253 253 254 254 253 254 252 253 255 257 257 257 260 262 264 263 262 261 261 264 267 269 272 272
243 242 241 241 241 240 239 239 238 239 239 240 240 242 243 244 246 248 249 249 250 251 253 253 254 255 257 256 256 257 257 257 258 260 260 259 260 261 262 263 262 261 260 266 270 270 271
242 241 241 241 239 239 242 241 240 242 240 241 241 243 244 245 243 245 248 249 250 252 251 255 255 256 257 258 262 261 261 260 259 260 262 262 263 261 262 264 264 263 264 265 267 267 269
240 241 242 242 243 242 242 241 241 243 244 242 241 242 244 244 246 247 248 249 250 250 251 252 255 256 257 261 259 258 259 259 260 261 261 264 265 264 262 263 264 264 269 265 265 267 267
240 241 242 243 243 242 242 242 241 243 242 241 243 244 245 245 246 249 250 251 252 252 252 252 255 256 259 259 258 259 258 259 259 259 261 261 263 263 264 263 264 268 267 267 267 267 267
239 239 240 241 242 242 242 242 242 242 242 244 243 245 247 244 246 249 250 250 251 253 255 253 255 259 258 258 260 259 260 259 259 260 261 262 262 263 264 264 265 265 267 264 263 261 264
239 239 238 239 241 241 242 242 243 244 244 243 243 245 245 243 247 248 249 250 251 252 254 256 256 257 260 259 260 262 261 262 261 260 261 260 261 261 263 267 264 265 259 258 258 261 265
238 239 239 239 240 241 241 242 243 244 244 244 244 245 246 246 245 247 249 249 252 253 255 255 255 254 256 257 259 260 261 262 261 262 258 260 260 261 259 264 268 260 253 250 256 262 251
240 240 240 241 241 241 241 241 243 244 245 245 244 245 247 247 245 248 250 251 251 253 253 253 252 254 255 257 259 260 261 262 258 260 260 259 261 261 260 262 264 254 252 251 243 238 245
239 239 241 241 242 242 242 242 243 244 245 246 246 247 248 247 244 247 248 250 250 251 252 252 253 255 255 256 258 259 258 256 257 255 255 255 258 249 249 246 223 193 214 220 224 231 238